Warrenton, VA

12:01 AM EDT on April 24, 2017 (GMT -0400)
Warrenton

Weather History for KHWY - December, 2011

Change the Weather History Date:

Friday, December 23, 2011

  Actual Average (KHEF) Record (KHEF)
Temperature  
Mean Temperature 45 °F -  
Max Temperature 55 °F 41 °F 64 °F (2015)
Min Temperature 35 °F 22 °F 6 °F (2000)
Degree Days  
Heating Degree Days 20    
Moisture  
Dew Point 45 °F    
Average Humidity 86    
Maximum Humidity 100    
Minimum Humidity 63    
Precipitation  
Precipitation 0.27 in - - ()
Sea Level Pressure  
Sea Level Pressure 30.05 in    
Wind  
Wind Speed 6 mph (NNW)    
Max Wind Speed 16 mph    
Max Gust Speed 22 mph    
Visibility 9 miles    
Events Rain    
Averages and records for this station are not official NWS values.
T = Trace of Precipitation, MM = Missing Value Source: NWS Daily Summary

Daily Weather History Graph

Daily Weather History Graph

Search for Another Location

Airport or City:

Trip Planner

Search our weather history database for the weather conditions in past years. The results will help you decide how hot, cold, wet, or windy it might be!

Date:

Astronomy

Dec. 23, 2011 Rise Set
Actual Time 7:25 AM EST 4:53 PM EST
Civil Twilight 6:55 AM EST 5:23 PM EST
Nautical Twilight 6:22 AM EST 5:57 PM EST
Astronomical Twilight 5:50 AM EST 6:29 PM EST
Moon 6:13 AM EST (12/23) 4:00 PM EST (12/23)
Length of Visible Light 10h 27m
Length of Day
9h 28m
Waning Crescent, 1% of the Moon is Illuminated
Dec 23
Waning Crescent
Dec 24
New
Jan 1
First Quarter
Jan 9
Full
Jan 16
Last Quarter

Hourly Weather History & Observations

Time (EST) Temp. Windchill Dew Point Humidity Pressure Visibility Wind Dir Wind Speed Gust Speed Precip Events Conditions
12:15 AM 51.8 °F - 51.8 °F 100% 29.81 in 4.0 mi Calm Calm - 0.05 in Rain Rain
12:35 AM 51.8 °F - 51.8 °F 100% 29.78 in 7.0 mi ENE 4.6 mph - 0.06 in Rain Rain
12:55 AM 51.8 °F - 51.8 °F 100% 29.75 in 7.0 mi East 4.6 mph - 0.06 in   Overcast
1:15 AM 51.8 °F - 51.8 °F 100% 29.77 in 7.0 mi NNW 4.6 mph - N/A   Overcast
1:35 AM 51.8 °F - 51.8 °F 100% 29.77 in 4.0 mi NNW 3.5 mph - N/A Rain Rain
1:55 AM 51.8 °F - 51.8 °F 100% 29.77 in 3.0 mi Calm Calm - 0.03 in Rain Rain
2:15 AM 51.8 °F - 51.8 °F 100% 29.77 in 5.0 mi NNW 3.5 mph - N/A   Light Drizzle
2:35 AM 51.8 °F - 51.8 °F 100% 29.83 in 4.0 mi WNW 10.4 mph 17.3 mph 0.04 in Rain Heavy Rain
2:55 AM 51.8 °F - 51.8 °F 100% 29.84 in 4.0 mi NNW 9.2 mph - 0.18 in Rain Heavy Rain
3:15 AM 51.8 °F - 51.8 °F 100% 29.85 in 10.0 mi NNW 6.9 mph - N/A Rain Rain
3:35 AM 51.8 °F - 51.8 °F 100% 29.86 in 10.0 mi Calm Calm - N/A Rain Light Rain
3:55 AM 51.8 °F - 51.8 °F 100% 29.87 in 10.0 mi Calm Calm - N/A   Overcast
4:15 AM 50.0 °F - 50.0 °F 100% 29.88 in 10.0 mi WNW 5.8 mph - N/A   Scattered Clouds
4:35 AM 51.8 °F - 51.8 °F 100% 29.89 in 10.0 mi NW 6.9 mph - N/A   Scattered Clouds
4:55 AM 50.0 °F - 50.0 °F 100% 29.91 in 10.0 mi Calm Calm - N/A   Scattered Clouds
5:15 AM 50.0 °F - 50.0 °F 100% 29.92 in 10.0 mi ESE 3.5 mph - N/A   Mostly Cloudy
5:55 AM 46.4 °F 42.4 °F 46.4 °F 100% 29.95 in 10.0 mi NW 8.1 mph - N/A   Scattered Clouds
6:15 AM 51.8 °F - 50.0 °F 94% 29.97 in 10.0 mi NW 13.8 mph 19.6 mph N/A   Clear
6:35 AM 51.8 °F - 50.0 °F 94% 29.98 in 10.0 mi NW 11.5 mph - N/A   Clear
6:55 AM 51.8 °F - 48.2 °F 88% 30.00 in 10.0 mi NW 12.7 mph - N/A   Clear
7:15 AM 51.8 °F - 46.4 °F 82% 30.01 in 10.0 mi NW 11.5 mph - N/A   Clear
7:35 AM 50.0 °F - 46.4 °F 87% 30.03 in 10.0 mi NNW 12.7 mph 17.3 mph N/A   Clear
7:55 AM 50.0 °F - 46.4 °F 87% 30.04 in 10.0 mi NW 13.8 mph 18.4 mph N/A   Clear
8:15 AM 50.0 °F - 44.6 °F 82% 30.05 in 10.0 mi NNW 5.8 mph - N/A   Clear
8:35 AM 51.8 °F - 46.4 °F 82% 30.07 in 10.0 mi NW 5.8 mph - N/A   Clear
8:55 AM 51.8 °F - 44.6 °F 76% 30.09 in 10.0 mi NNW 8.1 mph - N/A   Clear
9:15 AM 51.8 °F - 44.6 °F 76% 30.11 in 10.0 mi NW 13.8 mph 18.4 mph N/A   Clear
9:35 AM 51.8 °F - 44.6 °F 76% 30.10 in 10.0 mi NNW 15.0 mph - N/A   Clear
9:55 AM 53.6 °F - 44.6 °F 72% 30.11 in 10.0 mi NW 9.2 mph - N/A   Clear
10:35 AM 55.4 °F - 44.6 °F 67% 30.13 in 10.0 mi NNW 9.2 mph - N/A   Mostly Cloudy
10:55 AM 55.4 °F - 46.4 °F 72% 30.12 in 10.0 mi NW 15.0 mph 21.9 mph N/A   Mostly Cloudy
11:15 AM 51.8 °F - 44.6 °F 76% 30.13 in 10.0 mi NW 15.0 mph 20.7 mph N/A   Overcast
11:35 AM 51.8 °F - 42.8 °F 71% 30.14 in 10.0 mi NW 12.7 mph 21.9 mph N/A   Overcast
11:55 AM 51.8 °F - 42.8 °F 71% 30.13 in 10.0 mi NW 16.1 mph 21.9 mph N/A   Overcast
12:15 PM 51.8 °F - 42.8 °F 71% 30.13 in 10.0 mi NNW 9.2 mph 18.4 mph N/A   Overcast
12:55 PM 55.4 °F - 42.8 °F 63% 30.12 in 10.0 mi NW 16.1 mph 19.6 mph N/A   Scattered Clouds
1:15 PM 55.4 °F - 44.6 °F 67% 30.12 in 10.0 mi NW 8.1 mph 16.1 mph N/A   Scattered Clouds
1:55 PM 51.8 °F - 42.8 °F 71% 30.13 in 10.0 mi North 9.2 mph - N/A   Overcast
2:15 PM 51.8 °F - 42.8 °F 71% 30.13 in 10.0 mi North 8.1 mph - N/A   Overcast
2:35 PM 51.8 °F - 42.8 °F 71% 30.14 in 10.0 mi North 8.1 mph - N/A   Overcast
2:55 PM 51.8 °F - 41.0 °F 67% 30.14 in 10.0 mi North 9.2 mph 12.7 mph N/A   Overcast
3:15 PM 51.8 °F - 42.8 °F 71% 30.15 in 10.0 mi North 12.7 mph - N/A   Overcast
3:35 PM 50.0 °F - 41.0 °F 71% 30.16 in 10.0 mi North 10.4 mph - N/A   Overcast
3:55 PM 50.0 °F - 41.0 °F 71% 30.17 in 10.0 mi NNW 9.2 mph - N/A   Overcast
4:15 PM 50.0 °F - 41.0 °F 71% 30.18 in 10.0 mi North 8.1 mph - N/A   Overcast
4:35 PM 50.0 °F - 41.0 °F 71% 30.18 in 10.0 mi North 9.2 mph - N/A   Overcast
4:55 PM 46.4 °F 42.9 °F 41.0 °F 81% 30.18 in 10.0 mi North 6.9 mph - N/A   Overcast
5:35 PM 48.2 °F - 41.0 °F 76% 30.20 in 10.0 mi North 6.9 mph - N/A   Overcast
6:15 PM 46.4 °F 45.2 °F 41.0 °F 81% 30.21 in 10.0 mi NNE 3.5 mph - N/A   Overcast
6:35 PM 46.4 °F - 39.2 °F 76% 30.22 in 10.0 mi Calm Calm - N/A   Mostly Cloudy
6:55 PM 44.6 °F - 39.2 °F 81% 30.22 in 10.0 mi Calm Calm - N/A   Scattered Clouds
7:15 PM 41.0 °F 39.0 °F 37.4 °F 87% 30.22 in 10.0 mi NE 3.5 mph - N/A   Scattered Clouds
7:35 PM 41.0 °F - 37.4 °F 87% 30.21 in 10.0 mi Calm Calm - N/A   Scattered Clouds
7:55 PM 37.4 °F - 37.4 °F 100% 30.22 in 10.0 mi Calm Calm - N/A   Clear
8:15 PM 37.4 °F - 37.4 °F 100% 30.22 in 10.0 mi Calm Calm - N/A   Clear
8:35 PM 35.6 °F - 35.6 °F 100% 30.23 in 10.0 mi Calm Calm - N/A   Mostly Cloudy
8:55 PM 37.4 °F - 37.4 °F 100% 30.23 in 10.0 mi Calm Calm - N/A   Overcast
9:15 PM 37.4 °F - 37.4 °F 100% 30.23 in 10.0 mi Calm Calm - N/A   Overcast
9:35 PM 39.2 °F - 39.2 °F 100% 30.23 in 10.0 mi Calm Calm - N/A   Overcast
9:55 PM 41.0 °F - 41.0 °F 100% 30.23 in 10.0 mi Calm Calm - N/A   Overcast
10:15 PM 41.0 °F - 41.0 °F 100% 30.23 in 10.0 mi Calm Calm - N/A   Overcast
10:35 PM 41.0 °F - 41.0 °F 100% 30.23 in 10.0 mi Calm Calm - N/A   Overcast
10:55 PM 41.0 °F - 41.0 °F 100% 30.23 in 10.0 mi Calm Calm - N/A   Overcast
11:15 PM 41.0 °F - 41.0 °F 100% 30.24 in 10.0 mi Calm Calm - N/A   Overcast
11:35 PM 41.0 °F - 41.0 °F 100% 30.24 in 10.0 mi Calm Calm - N/A   Overcast
11:55 PM 42.8 °F - 42.8 °F 100% 30.24 in 10.0 mi Calm Calm - N/A   Overcast